DW7287 Weather Reports


Display with metric or nautical units.
time (UTC)temp
F
wind
direction
speed
MPH
gust
MPH
rain 1hr
in
rain 24hr
in
rain mn
in
humidity
%
barometer
mb
20260904203109 76 360 1.0 4.0 0.00 0.01 0.01 86 1015.7
20260904201604 75 360 1.0 4.0 0.00 0.01 0.01 85 1015.7
20260904200105 74 34 1.0 3.0 0.01 0.01 0.01 87 1015.9
20260904194609 74 0 0.0 1.0 0.01 0.01 0.01 86 1016.4
20260904193116 75 0 0.0 2.0 0.01 0.01 0.01 85 1016.5
20260904191603 77 360 1.0 8.0 0.01 0.01 0.01 79 1016.4
20260904184611 91 46 4.0 15.0 0.00 0.00 0.00 56 1016.4
20260904183104 93 219 0.0 8.0 0.00 0.00 0.00 57 1015.5
20260904181610 93 261 2.0 7.0 0.00 0.00 0.00 56 1015.7
20260904180119 93 272 1.0 6.0 0.00 0.00 0.00 58 1015.5
20260904174613 92 0 1.0 8.0 0.00 0.00 0.00 59 1016.0
20260904173110 92 316 2.0 8.0 0.00 0.00 0.00 58 1016.4
20260904171606 93 250 0.0 5.0 0.00 0.00 0.00 59 1016.7
20260904164607 92 152 1.0 6.0 0.00 0.00 0.00 61 1016.9
20260904163110 92 0 0.0 0.0 0.00 0.00 0.00 60 1017.1
20260904161605 92 0 0.0 0.0 0.00 0.00 0.00 61 1017.2
20260904154559 91 0 0.0 0.0 0.00 0.00 0.00 67 1017.3
20260904153119 90 0 0.0 0.0 0.00 0.00 0.00 69 1017.4
20260904151605 89 0 0.0 0.0 0.00 0.00 0.00 67 1017.4
20260904150103 89 0 0.0 0.0 0.00 0.00 0.00 67 1017.5
20260904144607 88 0 0.0 0.0 0.00 0.00 0.00 73 1017.5
20260904143109 87 0 0.0 0.0 0.00 0.00 0.00 74 1017.4
20260904141607 86 0 0.0 0.0 0.00 0.00 0.00 76 1017.4
20260904140107 84 0 0.0 0.0 0.00 0.00 0.00 81 1017.4
20260904134607 82 0 0.0 0.0 0.00 0.00 0.00 82 1017.5
20260904133113 80 0 0.0 0.0 0.00 0.00 0.00 86 1017.6
20260904131613 79 0 0.0 0.0 0.00 0.00 0.00 90 1017.8
20260904130109 76 0 0.0 0.0 0.00 0.00 0.00 94 1017.7
20260904124612 75 0 0.0 0.0 0.00 0.00 0.00 96 1017.9
20260904123117 74 0 0.0 0.0 0.00 0.00 0.00 97 1017.6
20260904121605 73 0 0.0 0.0 0.00 0.00 0.00 97 1017.4
20260904120107 71 0 0.0 0.0 0.00 0.00 0.00 96 1017.4
20260904114559 71 0 0.0 0.0 0.00 0.00 0.00 96 1017.4
20260904113102 71 0 0.0 0.0 0.00 0.00 0.00 96 1017.0
20260904111611 71 0 0.0 0.0 0.00 0.00 0.00 96 1016.8
20260904110110 71 0 0.0 0.0 0.00 0.00 0.00 96 1016.7
20260904104605 71 0 0.0 0.0 0.00 0.00 0.00 96 1016.6
20260904103101 71 0 0.0 0.0 0.00 0.00 0.00 95 1016.5
20260904101615 71 0 0.0 0.0 0.00 0.00 0.00 95 1016.5
20260904100103 71 0 0.0 0.0 0.00 0.00 0.00 95 1016.4
20260904094601 71 0 0.0 0.0 0.00 0.00 0.00 95 1016.2
20260904093118 71 0 0.0 0.0 0.00 0.00 0.00 95 1016.2
20260904091602 72 0 0.0 0.0 0.00 0.00 0.00 95 1016.4
20260904084600 72 0 0.0 0.0 0.00 0.00 0.00 95 1016.2
20260904083105 72 0 0.0 0.0 0.00 0.00 0.00 95 1016.2
20260904081602 72 0 0.0 0.0 0.00 0.00 0.00 95 1016.1
20260904074606 73 0 0.0 0.0 0.00 0.00 0.00 95 1016.0
20260904073103 73 0 0.0 0.0 0.00 0.00 0.00 95 1016.1
20260904071602 73 0 0.0 0.0 0.00 0.00 0.00 95 1016.0
20260904070104 73 0 0.0 0.0 0.00 0.00 0.00 94 1016.2
20260904064607 74 0 0.0 0.0 0.00 0.00 0.00 94 1016.2
20260904063104 74 0 0.0 0.0 0.00 0.00 0.00 94 1016.3
20260904061601 74 0 0.0 0.0 0.00 0.00 0.00 94 1016.5
20260904060106 74 0 0.0 0.0 0.00 0.00 0.00 94 1016.7
20260904054600 74 0 0.0 0.0 0.00 0.00 0.00 94 1016.7
20260904053106 74 0 0.0 0.0 0.00 0.00 0.00 95 1016.7
20260904051604 75 0 0.0 0.0 0.00 0.00 0.00 94 1016.8
20260904050103 75 0 0.0 0.0 0.00 0.00 0.00 94 1016.7
20260904044612 75 0 0.0 0.0 0.00 0.00 0.00 93 1016.7
20260904043103 75 0 0.0 0.0 0.00 0.00 0.00 94 1016.7
20260904041602 75 0 0.0 0.0 0.00 0.00 0.00 93 1016.7
20260904040106 76 0 0.0 0.0 0.00 0.00 0.00 93 1016.6
20260904034605 76 0 0.0 0.0 0.00 0.00 0.00 92 1016.5
20260904033107 76 0 0.0 0.0 0.00 0.00 0.00 92 1016.5
20260904031601 76 0 0.0 0.0 0.00 0.00 0.00 92 1016.6
20260904024610 77 0 0.0 0.0 0.00 0.00 0.00 91 1016.7
20260904023104 77 0 0.0 0.0 0.00 0.00 0.00 91 1016.8
20260904021602 77 0 0.0 0.0 0.00 0.00 0.00 90 1016.8
20260904020100 78 0 0.0 0.0 0.00 0.00 0.00 89 1016.8
20260904014602 78 0 0.0 0.0 0.00 0.00 0.00 88 1016.7
20260904013102 79 0 0.0 0.0 0.00 0.00 0.00 88 1016.7
20260904011613 78 0 0.0 0.0 0.00 0.00 0.00 86 1016.4
20260904010110 80 0 0.0 0.0 0.00 0.00 0.00 84 1016.5
20260904004558 80 0 0.0 0.0 0.00 0.00 0.00 83 1016.4
20260904003105 81 0 0.0 0.0 0.00 0.00 0.00 83 1016.3
20260904001604 81 0 0.0 1.0 0.00 0.00 0.00 79 1016.1
20260903234605 84 0 0.0 0.0 0.00 0.00 0.00 76 1016.3
20260903233103 85 0 0.0 0.0 0.00 0.00 0.00 76 1016.2
20260903231606 86 0 0.0 0.0 0.00 0.00 0.00 73 1016.2
20260903224605 88 0 0.0 1.0 0.00 0.00 0.00 67 1016.0
20260903223104 89 0 0.0 2.0 0.00 0.00 0.00 64 1015.8
20260903221605 89 318 0.0 2.0 0.00 0.00 0.00 64 1015.5
20260903220124 89 0 0.0 2.0 0.00 0.00 0.00 63 1015.1
20260903214605 90 0 0.0 3.0 0.00 0.00 0.00 60 1015.2
20260903213106 90 254 0.0 3.0 0.00 0.00 0.00 62 1015.2
20260903211603 91 0 0.0 3.0 0.00 0.00 0.00 61 1015.5
20260903210107 91 0 0.0 3.0 0.00 0.00 0.00 60 1015.5
20260903204559 90 288 0.0 4.0 0.00 0.00 0.00 59 1015.9